CET,Max TemperatureF,Mean TemperatureF,Min TemperatureF,Max Dew PointF,MeanDew PointF,Min DewpointF,Max Humidity, Mean Humidity, Min Humidity, Max Sea Level PressureIn, Mean Sea Level PressureIn, Min Sea Level PressureIn, Max VisibilityMiles, Mean VisibilityMiles, Min VisibilityMiles, Max Wind SpeedMPH, Mean Wind SpeedMPH, Max Gust SpeedMPH,PrecipitationIn, CloudCover, Events, WindDirDegrees
2012-11-1,46,40,34,41,36,30,98,85,76,29.49,29.30,29.21,11,4,1,15,9,,0.02,6,Rain,170
2012-11-2,46,42,39,41,35,30,93,75,49,29.65,29.54,29.36,12,6,3,21,13,31,0.00,5,Rain,201
2012-11-3,51,45,39,46,40,34,96,85,76,29.73,29.63,29.53,17,6,2,24,14,39,0.16,6,Rain,213
2012-11-4,48,44,39,46,40,36,97,88,81,29.77,29.63,29.50,9,6,3,14,8,,0.03,5,Rain,183
2012-11-5,43,40,37,44,38,34,96,86,81,29.76,29.58,29.50,19,8,3,16,11,,0.16,6,Rain,235
2012-11-6,39,36,32,36,33,30,99,90,81,30.12,29.92,29.74,14,7,2,13,7,,0.03,6,Rain-Snow,256
2012-11-7,42,38,35,40,38,34,97,92,87,30.29,30.19,30.06,7,3,1,21,15,33,0.01,8,Rain,234
2012-11-8,41,40,39,39,37,36,96,85,81,30.26,30.12,30.04,11,6,3,22,13,33,0.00,8,Rain,222
2012-11-9,45,40,35,39,36,30,97,84,55,30.13,30.04,29.92,19,5,2,12,8,,0.00,7,Rain,196
2012-11-10,44,40,36,41,34,32,93,80,73,29.97,29.76,29.65,14,6,3,14,9,,0.08,7,Rain,148
2012-11-11,45,41,37,47,43,41,100,93,87,30.10,29.85,29.68,6,2,0,20,8,,0.16,8,Fog-Rain,173
2012-11-12,45,42,39,43,38,36,100,88,68,30.43,30.24,30.09,12,4,0,7,3,,0.00,7,Fog-Rain,277
2012-11-13,43,34,26,37,31,26,100,86,60,30.57,30.47,30.39,14,4,0,6,3,,0.00,3,Fog,185
2012-11-14,40,32,25,36,30,25,100,92,79,30.57,30.41,30.30,4,1,0,9,4,,0.00,5,Fog,149
2012-11-15,30,29,28,30,28,27,100,93,86,30.39,30.22,30.12,2,1,0,10,7,,0.00,8,Fog,160
2012-11-16,32,30,27,30,27,25,100,91,80,30.24,30.10,30.01,6,3,1,12,7,,0.00,8,,178
2012-11-17,35,32,28,31,28,25,100,91,81,30.11,29.97,29.89,6,3,0,13,9,,0.00,7,Fog,186
2012-11-18,42,36,29,38,35,30,100,91,81,30.06,29.95,29.89,6,3,0,9,5,,0.00,7,Fog,187
2012-11-19,48,40,33,41,36,30,100,89,65,30.16,30.07,30.01,10,2,0,8,2,,0.00,7,Fog-Rain,131
2012-11-20,39,36,34,39,36,34,100,93,87,30.17,30.12,30.09,4,2,0,9,5,,0.00,8,Fog,144
2012-11-21,41,39,37,38,36,34,100,91,81,30.16,30.08,30.01,4,2,1,17,9,,0.00,8,,173
2012-11-22,45,38,32,39,36,30,100,90,71,30.30,30.21,30.12,12,3,0,12,6,,0.00,6,Fog-Rain,212
2012-11-23,41,36,32,39,36,30,100,94,87,30.27,30.15,30.09,7,2,0,14,6,,0.00,7,Fog-Rain,187
2012-11-24,49,43,37,40,37,36,100,85,61,30.17,30.10,29.98,11,4,1,13,7,,0.00,7,Rain,170
2012-11-25,50,44,37,43,37,30,96,75,54,30.05,29.96,29.89,19,6,2,18,8,28,0.00,6,Rain,196
2012-11-26,47,40,32,43,37,28,100,85,76,30.05,29.85,29.71,19,9,1,12,6,,0.00,7,Rain,161
2012-11-27,43,41,39,44,40,37,100,89,76,29.76,29.71,29.65,16,6,0,8,4,,0.00,8,Fog-Rain,255
2012-11-28,39,37,35,40,37,34,100,94,87,29.71,29.56,29.44,6,2,0,18,9,32,0.08,8,Fog-Rain,11
2012-11-29,32,31,30,35,30,28,100,95,93,29.62,29.40,29.27,6,2,0,20,14,,0.24,7,Rain-Snow,335
2012-11-30,30,26,21,30,27,19,100,94,85,29.95,29.70,29.53,12,5,0,9,5,,0.00,8,Fog-Snow,283